[[{"header":{"parameterUnit":"m.s-1","parameterCategory":1,"la1":30.2991,"la2":30.254,"lo1":-89.0895,"lo2":-89.0444,"dy":0.0017,"dx":0.0017,"nx":28,"ny":28,"refTime":"2025-01-02T03:00:00:Z","depth":0,"parameterNumber":2,"parameterNumberName":"U-component_of_WINDS"},"data":[0,0,0,0,0,0,0,0,0,0,0,0,0,0,0,0,0,0,0,0,0,0,0,0,0,0,0,0,0,0,0,0,0,0,0,0,0,0,0,0,0,0,0,0,0,0,0,0,0,0,0,0,0,0,0,0,0,0,-2.9616,-2.9615,0,-2.9596,-2.9596,-2.9596,-2.9473,-2.947,-2.9467,-2.9464,-2.9448,-2.9451,-2.9453,0,0,0,0,0,0,0,0,0,0,0,0,0,-2.9552,-2.9554,-2.9616,-2.9615,-2.9615,-2.9596,-2.9596,-2.9596,-2.9474,-2.947,-2.9466,-2.9463,-2.9448,-2.945,-2.9453,0,0,0,0,0,0,0,0,0,0,0,0,0,-2.9561,-2.9554,-2.9616,-2.9552,-2.9546,-2.9596,-2.9596,-2.9596,-2.9474,-2.947,-2.9465,-2.9461,-2.9447,-2.945,-2.9454,-2.9565,0,0,-2.9464,-2.9466,0,0,0,0,0,0,0,0,-2.9561,-2.9563,-2.9561,-2.9556,-2.955,-2.9532,-2.9568,-2.9586,-2.9476,-2.9502,-2.9464,-2.9459,-2.948,-2.9481,-2.9487,-2.9564,-2.9564,-2.9465,-2.9467,-2.9468,-2.9469,0,0,0,0,0,0,0,-2.956,-2.9564,-2.9608,-2.9562,-2.9555,-2.9526,-2.9522,-2.957,-2.9517,-2.9499,-2.949,-2.9489,-2.9476,-2.9484,-2.9486,-2.9563,-2.9465,-2.9468,-2.947,-2.9471,-2.9734,-2.9739,0,0,0,0,0,0,-2.9568,-2.9564,-2.9609,-2.9607,-2.9544,-2.9531,-2.9526,-2.9543,-2.9516,-2.9507,-2.9493,-2.9484,-2.948,-2.9482,-2.9485,-2.9615,-2.9468,-2.9472,-2.9474,-2.9729,-2.9735,-2.974,0,0,0,0,0,0,-2.9567,-2.9573,-2.9609,-2.9583,-2.9586,-2.9536,-2.9556,-2.9545,-2.9552,-2.9511,-2.9501,-2.9511,-2.9477,-2.948,-2.9546,-2.9612,-2.9473,-2.9476,-2.9723,-2.9731,-2.9738,-2.9875,0,0,0,0,0,0,-2.9566,-2.9573,-2.9614,-2.9585,-2.9588,-2.967,-2.956,-2.9547,-2.9558,-2.9545,-2.9525,-2.9517,-2.9473,-2.9542,-2.955,-2.9615,-2.9479,-2.9717,-2.9727,-2.9735,-2.9864,-2.9886,-2.9905,0,0,0,0,0,-2.9564,-2.9654,-2.9616,-2.9623,-2.9637,-2.9674,-2.9676,-2.9622,-2.9564,-2.9605,-2.9579,-2.9518,-2.9604,-2.955,-2.9558,-2.9625,-2.9713,-2.9724,-2.9735,-2.9855,-2.9882,-2.9904,0,0,0,0,0,0,-2.9692,-2.9648,-2.9607,-2.969,-2.9687,-2.9653,-2.9703,-2.9652,-2.9666,-2.9654,-2.9588,-2.9585,-2.9662,-2.965,-2.959,-2.9733,-2.9648,-2.9661,-2.9737,-2.9762,-2.9782,-2.9783,-2.9482,0,0,0,0,0,-2.973,-2.9762,-2.9723,-2.98,-2.9801,-2.9753,-2.9767,-2.9726,-2.9721,-2.9719,-2.9698,-2.9696,-2.9723,-2.9742,-2.9764,-2.9863,-2.9857,-2.9913,-2.9933,-2.995,-2.9962,-3.0015,-3.004,-2.9776,-2.9776,-2.9776,0,0,-2.9808,-2.9789,-2.9813,-2.9825,-2.9818,-2.9855,-2.9752,-2.9795,-2.9822,-2.9726,-2.9787,-2.9772,-2.9766,-2.985,-2.9886,-2.9842,-3.0034,-2.9964,-2.9977,-2.998,-3.0029,-3.0054,-3.0076,-2.9784,-2.9782,-2.9781,0,0,-2.997,-2.9958,-3.0021,-3.0017,-3.0007,-2.9975,-2.9991,-2.9966,-2.9952,-3.0012,-2.9941,-2.9974,-3.0021,-3.002,-3.0026,-3.0191,-3.0136,-3.02,-3.0305,-3.0358,-3.0379,-3.0397,-3.0457,-3.0479,-3.0212,-3.0213,-3.0213,0,-3.0069,-3.012,-3.0061,-3.0109,-3.0117,-3.0032,-3.0097,-3.0095,-3.0094,-3.0103,-3.0054,-3.0113,-3.0103,-3.0186,-3.0226,-3.0234,-3.0251,-3.0202,-3.038,-3.0398,-3.0414,-3.0471,-3.0493,-3.0221,-3.022,-3.0219,-3.0218,0,-3.0243,-3.028,-3.0333,-3.0333,-3.0348,-3.0404,-3.0356,-3.0378,-3.0337,-3.0311,-3.0376,-3.0361,-3.0379,-3.0396,-3.0357,-3.0475,-3.0449,-3.0392,-3.0305,-3.0448,-3.05,-3.0521,-3.0232,-3.0229,-3.0227,-3.0225,0,0,-3.0482,-3.0451,-3.0472,-3.0472,-3.0456,-3.0484,-3.0539,-3.0556,-3.0577,-3.058,-3.0625,-3.0668,-3.0616,-3.0623,-3.0583,-3.0629,-3.0763,-3.0566,-3.0565,-3.0604,-3.0894,-3.0937,-3.0963,-3.0727,-3.073,-3.0734,-3.0895,0,-3.0638,-3.0726,-3.0676,-3.0773,-3.0807,-3.0728,-3.0776,-3.0773,-3.0751,-3.0778,-3.0754,-3.0787,-3.0714,-3.0718,-3.0761,-3.0738,-3.082,-3.0725,-3.0769,-3.0771,-3.0773,-3.099,-3.1035,-3.1188,-3.0915,-3.0918,-3.0921,0,-3.083,-3.0842,-3.0942,-3.0921,-3.0934,-3.0977,-3.099,-3.1017,-3.1014,-3.0994,-3.1004,-3.0954,-3.1007,-3.0923,-3.0998,-3.0934,-3.095,-3.0942,-3.0946,-3.0948,-3.0854,-3.0998,-3.1235,-3.1258,-3.0952,-3.0949,-3.0947,0,-3.0996,-3.1036,-3.1102,-3.1104,-3.1082,-3.1115,-3.1107,-3.1099,-3.1113,-3.1126,-3.1135,-3.1155,-3.1165,-3.1182,-3.114,-3.1082,-3.1221,-3.1133,-3.1208,-3.121,-3.124,-3.1239,-3.1483,-3.1251,-3.125,-3.125,-3.1249,0,-3.1175,-3.1239,-3.1176,-3.1216,-3.1287,-3.123,-3.1303,-3.1287,-3.1281,-3.1318,-3.1252,-3.1289,-3.123,-3.1262,-3.123,-3.1297,-3.1302,-3.129,-3.128,-3.1296,-3.1298,-3.1305,-3.1293,-3.1256,-3.1255,-3.1253,-3.1252,0,-3.1371,-3.1331,-3.1397,-3.1372,-3.1367,-3.1421,-3.1399,-3.1437,-3.1411,-3.146,-3.1468,-3.1429,-3.1463,-3.1422,-3.1453,-3.1432,-3.1524,-3.1498,-3.1525,-3.1517,-3.1596,-3.1589,-3.1853,-3.1885,-3.1632,-3.1635,-3.1637,0,-3.1487,-3.1535,-3.1515,-3.1535,-3.1532,-3.1564,-3.1579,-3.1527,-3.1545,-3.1546,-3.1584,-3.1613,-3.1632,-3.1692,-3.1667,-3.1691,-3.1666,-3.1757,-3.1669,-3.1684,-3.1669,-3.1666,-3.1671,-3.1775,-3.1778,-3.1781,-3.1783,0,-3.1699,-3.1677,-3.17,-3.1718,-3.1737,-3.1749,-3.1755,-3.1776,-3.1721,-3.1746,-3.178,-3.1796,-3.1828,-3.1858,-3.1876,-3.187,-3.1819,-3.1811,-3.183,-3.1845,-3.1859,-3.1854,-3.1574,-3.1805,-3.1802,-3.1801,-3.18,-3.1799,-3.1859,-3.1898,-3.1891,-3.192,-3.1919,-3.1928,-3.1962,-3.1941,-3.1968,-3.1989,-3.1958,-3.2001,-3.1999,-3.2017,-3.2018,-3.2052,-3.2013,-3.204,-3.2047,-3.2055,-3.2067,-3.1854,-3.2055,-3.2055,-3.2054,-3.2053,-3.2053,0,-3.2067,-3.2059,-3.2086,-3.2097,-3.2121,-3.207,-3.2075,-3.2099,-3.2137,-3.2139,-3.216,-3.2201,-3.2231,-3.221,-3.2235,-3.2267,-3.2244,-3.2275,-3.2272,-3.2272,-3.21,-3.2081,-3.2294,-3.2294,-3.2293,-3.2293,-3.2293,-3.2293,-3.2178,-3.2242,-3.2221,-3.2286,-3.2277,-3.2318,-3.2326,-3.2335,-3.2336,-3.2384,-3.2408,-3.2394,-3.2387,-3.2412,-3.2438,-3.2431,-3.2444,-3.2484,-3.2469,-3.2308,-3.2284,-3.2262,-3.2244,-3.2487,-3.2487,-3.2638,-3.264,-3.2641]},{"header":{"parameterUnit":"m.s-1","parameterCategory":1,"la1":30.2991,"la2":30.254,"lo1":-89.0895,"lo2":-89.0444,"dy":0.0017,"dx":0.0017,"nx":28,"ny":28,"refTime":"2025-01-02T03:00:00:Z","depth":0,"parameterNumber":3,"parameterNumberName":"V-component_of_WINDS"},"data":[0,0,0,0,0,0,0,0,0,0,0,0,0,0,0,0,0,0,0,0,0,0,0,0,0,0,0,0,0,0,0,0,0,0,0,0,0,0,0,0,0,0,0,0,0,0,0,0,0,0,0,0,0,0,0,0,0,0,0.8063,0.8063,0,0.8046,0.8046,0.8045,0.8083,0.8084,0.8085,0.8086,0.8065,0.8063,0.8061,0,0,0,0,0,0,0,0,0,0,0,0,0,0.8126,0.8125,0.8063,0.8063,0.8063,0.8046,0.8046,0.8045,0.8082,0.8084,0.8085,0.8087,0.8065,0.8063,0.8061,0,0,0,0,0,0,0,0,0,0,0,0,0,0.8103,0.8124,0.8063,0.8079,0.8081,0.8046,0.8046,0.8045,0.8082,0.8084,0.8086,0.8087,0.8066,0.8063,0.8061,0.8009,0,0,0.8053,0.8052,0,0,0,0,0,0,0,0,0.8104,0.81,0.8077,0.8078,0.808,0.8068,0.806,0.8033,0.8082,0.8081,0.8086,0.8088,0.8064,0.8062,0.8055,0.8008,0.8007,0.8053,0.8051,0.805,0.8049,0,0,0,0,0,0,0,0.8106,0.8101,0.8056,0.8077,0.8078,0.8087,0.8085,0.8055,0.8063,0.8082,0.8084,0.8082,0.8065,0.8057,0.8054,0.8006,0.8053,0.8051,0.8049,0.8048,0.7917,0.7915,0,0,0,0,0,0,0.8106,0.8102,0.8057,0.8056,0.8097,0.8084,0.8083,0.807,0.8063,0.8064,0.808,0.8084,0.806,0.8057,0.8054,0.7992,0.805,0.8048,0.8046,0.7919,0.7916,0.7914,0,0,0,0,0,0,0.8107,0.8101,0.8057,0.808,0.8075,0.8081,0.8067,0.8069,0.8061,0.8062,0.8064,0.8071,0.8062,0.8057,0.802,0.7992,0.8047,0.8044,0.7921,0.7918,0.7915,0.7869,0,0,0,0,0,0,0.8108,0.8101,0.8082,0.8079,0.8074,0.8024,0.8065,0.8067,0.8056,0.8061,0.8053,0.8054,0.8063,0.8024,0.8017,0.7989,0.8042,0.7923,0.792,0.7916,0.7873,0.7864,0.7857,0,0,0,0,0,0.8111,0.8068,0.8081,0.8075,0.805,0.8023,0.802,0.8032,0.8054,0.8034,0.8036,0.8054,0.7997,0.802,0.8013,0.7984,0.7925,0.7921,0.7916,0.7876,0.7866,0.7858,0,0,0,0,0,0,0.8066,0.8068,0.8082,0.8038,0.803,0.8029,0.8004,0.8021,0.8005,0.8009,0.8024,0.8022,0.7982,0.7979,0.8005,0.7933,0.7965,0.7959,0.7936,0.7927,0.7919,0.792,0.804,0,0,0,0,0,0.8051,0.803,0.8033,0.7994,0.799,0.7998,0.7987,0.7997,0.7989,0.7985,0.7984,0.7974,0.7955,0.7941,0.7922,0.7873,0.7872,0.785,0.7842,0.7836,0.783,0.7804,0.7795,0.79,0.79,0.79,0,0,0.802,0.8019,0.8004,0.7985,0.798,0.7958,0.7995,0.7969,0.7952,0.7981,0.7946,0.7945,0.7935,0.7892,0.7873,0.7889,0.7801,0.7831,0.7826,0.7823,0.7799,0.7789,0.778,0.7897,0.7897,0.7898,0,0,0.7952,0.7949,0.7916,0.7911,0.7904,0.791,0.7902,0.79,0.79,0.7866,0.7888,0.7868,0.7833,0.7825,0.7817,0.7748,0.7764,0.7742,0.7701,0.7676,0.7667,0.766,0.7635,0.7626,0.7736,0.7736,0.7736,0,0.7913,0.7881,0.7897,0.787,0.7861,0.7889,0.7855,0.7849,0.7836,0.7829,0.7847,0.7805,0.78,0.7756,0.7739,0.7732,0.7723,0.7741,0.7668,0.766,0.7654,0.763,0.7621,0.7733,0.7734,0.7734,0.7734,0,0.7834,0.7811,0.7786,0.7774,0.7762,0.7732,0.7743,0.7729,0.7741,0.7745,0.771,0.7706,0.7688,0.7678,0.7689,0.7635,0.7645,0.7665,0.7697,0.7641,0.7619,0.761,0.7729,0.773,0.7731,0.7732,0,0,0.7734,0.7734,0.7724,0.7719,0.7715,0.7697,0.7669,0.7652,0.764,0.763,0.7606,0.7577,0.7596,0.7587,0.7597,0.7575,0.7521,0.7598,0.7598,0.7583,0.7461,0.7445,0.7435,0.7532,0.7531,0.7529,0.7462,0,0.7666,0.7618,0.7633,0.7584,0.7564,0.7591,0.7566,0.756,0.7563,0.7546,0.7549,0.7528,0.7555,0.755,0.7529,0.7531,0.7496,0.7537,0.7509,0.7508,0.7509,0.7423,0.7406,0.7342,0.7453,0.7452,0.7451,0,0.758,0.7569,0.7518,0.7518,0.751,0.7488,0.7474,0.7457,0.7451,0.7456,0.7446,0.7462,0.7433,0.7466,0.7427,0.7455,0.7444,0.7444,0.7442,0.7438,0.7475,0.7416,0.7322,0.7312,0.7438,0.7439,0.744,0,0.7512,0.7484,0.7451,0.7446,0.7445,0.7429,0.7427,0.7424,0.7413,0.7401,0.7395,0.7379,0.7371,0.7358,0.7369,0.7392,0.7328,0.7362,0.733,0.7329,0.7313,0.7314,0.7215,0.7309,0.7309,0.7309,0.7309,0,0.7433,0.7401,0.742,0.7399,0.7364,0.7382,0.7346,0.7348,0.7345,0.7324,0.7347,0.7327,0.7343,0.7325,0.7333,0.7299,0.7295,0.7297,0.7299,0.7294,0.7294,0.7287,0.7291,0.7307,0.7307,0.7308,0.7308,0,0.735,0.7362,0.7327,0.733,0.733,0.7304,0.7306,0.7287,0.7293,0.7267,0.7262,0.7271,0.7251,0.7261,0.7239,0.7245,0.7201,0.721,0.7203,0.7205,0.7172,0.7175,0.7064,0.705,0.7154,0.7153,0.7152,0,0.7298,0.7275,0.7276,0.7265,0.7262,0.7244,0.7234,0.7251,0.7239,0.7232,0.7213,0.7195,0.7182,0.7148,0.7152,0.7135,0.7143,0.7106,0.7141,0.7137,0.7142,0.7143,0.714,0.7098,0.7097,0.7096,0.7095,0,0.7206,0.7213,0.7199,0.7186,0.7174,0.7165,0.7158,0.7147,0.7164,0.715,0.713,0.712,0.7099,0.708,0.7067,0.7065,0.7082,0.7085,0.7076,0.707,0.7067,0.7067,0.7183,0.7086,0.7087,0.7088,0.7088,0.7089,0.7136,0.7117,0.7115,0.7098,0.7095,0.7088,0.707,0.7075,0.7059,0.7044,0.7055,0.7032,0.7028,0.7012,0.7007,0.6989,0.7004,0.6991,0.6988,0.6985,0.698,0.7071,0.6987,0.6987,0.6987,0.6987,0.6988,0,0.7044,0.7045,0.703,0.7019,0.7006,0.7027,0.702,0.7007,0.6987,0.6982,0.6969,0.6946,0.6929,0.6933,0.6917,0.6902,0.6909,0.6897,0.6897,0.6896,0.6968,0.6976,0.6891,0.6891,0.6891,0.6891,0.6891,0.6891,0.6994,0.6963,0.697,0.6937,0.6938,0.6916,0.6911,0.6904,0.6901,0.6875,0.6861,0.6865,0.6863,0.6848,0.6833,0.6835,0.6827,0.6811,0.6816,0.6882,0.6891,0.69,0.6909,0.681,0.681,0.6746,0.6745,0.6745]}]]